Weather History for North Wilkesboro, NC

Change the Weather History Date:

Monday, August 19, 2013

  Actual Average Record
Temperature  
Mean Temperature 70 °F -  
Max Temperature 75 °F 86 °F 101 °F (1988)
Min Temperature 64 °F 62 °F 52 °F (1976)
Cooling Degree Days 4    
Growing Degree Days 20 (Base 50)    
Moisture  
Dew Point 65 °F    
Average Humidity 93    
Maximum Humidity 100    
Minimum Humidity 73    
Precipitation  
Precipitation 0.55 in - - ()
Sea Level Pressure  
Sea Level Pressure 30.23 in    
Wind  
Wind Speed 2 mph (SSE)    
Max Wind Speed 6 mph    
Max Gust Speed -    
Visibility 8 miles    
Events Rain    
Averages and records for this station are not official NWS values.
T = Trace of Precipitation, MM = Missing Value Source: NWS Daily Summary

Daily Weather History Graph

Daily Weather History Graph

Search for Another Location

Airport:

Trip Planner

Search our weather history database for the weather conditions in past years. The results will help you decide how hot, cold, wet, or windy it might be!

Date:

Astronomy

Aug. 19, 2013 Rise Set
Actual Time 6:45 AM EDT 8:09 PM EDT
Civil Twilight 6:18 AM EDT 8:36 PM EDT
Nautical Twilight 5:46 AM EDT 9:08 PM EDT
Astronomical Twilight 5:12 AM EDT 9:42 PM EDT
Moon 6:59 PM EDT (8/19) 5:04 AM EDT (8/19)
Length of Visible Light 14h 17m
Length of Day
13h 23m
Waxing Gibbous, 97% of the Moon is Illuminated
Aug 19
Waxing Gibbous
Aug 20
Full
Aug 28
Last Quarter
Sep 5
New
Sep 12
First Quarter

Hourly Weather History & Observations

Time (EDT) Temp. Dew Point Humidity Pressure Visibility Wind Dir Wind Speed Gust Speed Precip Events Conditions
12:15 AM 66.2 °F 66.2 °F 100% 30.28 in 7.0 mi SE 3.5 mph - 0.03 in Rain Light Rain
12:35 AM 66.2 °F 66.2 °F 100% 30.28 in 4.0 mi Calm Calm - 0.21 in Rain Rain
12:55 AM 66.2 °F 64.4 °F 94% 30.27 in 10.0 mi East 4.6 mph - 0.22 in Rain Rain
1:15 AM 64.4 °F 64.4 °F 100% 30.27 in 7.0 mi Calm Calm - 0.01 in Rain Rain
1:35 AM 66.2 °F 64.4 °F 94% 30.27 in 10.0 mi ESE 4.6 mph - 0.06 in Rain Light Rain
1:55 AM 64.4 °F 64.4 °F 100% 30.27 in 10.0 mi East 3.5 mph - 0.08 in Rain Light Rain
2:15 AM 64.4 °F 64.4 °F 100% 30.27 in 10.0 mi Calm Calm - 0.01 in Rain Light Rain
2:35 AM 64.4 °F 64.4 °F 100% 30.25 in 10.0 mi East 3.5 mph - 0.02 in Rain Rain
2:55 AM 64.4 °F 64.4 °F 100% 30.25 in 10.0 mi Calm Calm - 0.03 in Rain Light Rain
3:15 AM 64.4 °F 64.4 °F 100% 30.25 in 10.0 mi Calm Calm - 0.01 in Rain Light Rain
3:35 AM 64.4 °F 64.4 °F 100% 30.25 in 10.0 mi Calm Calm - 0.03 in Rain Light Rain
3:55 AM 64.4 °F 64.4 °F 100% 30.25 in 7.0 mi Calm Calm - 0.04 in Rain Light Rain
4:15 AM 64.4 °F 64.4 °F 100% 30.25 in 7.0 mi Calm Calm - 0.01 in Rain Light Rain
4:35 AM 64.4 °F 64.4 °F 100% 30.25 in 10.0 mi Calm Calm - 0.02 in Rain Rain
4:55 AM 64.4 °F 64.4 °F 100% 30.25 in 7.0 mi SE 3.5 mph - 0.02 in Rain Rain
5:15 AM 64.4 °F 64.4 °F 100% 30.25 in 3.0 mi Calm Calm - N/A Rain Light Rain
5:35 AM 64.4 °F 64.4 °F 100% 30.25 in 3.0 mi Calm Calm - 0.02 in Rain Light Rain
5:55 AM 64.4 °F 64.4 °F 100% 30.24 in 3.0 mi Calm Calm - 0.04 in Rain Light Rain
6:15 AM 64.4 °F 64.4 °F 100% 30.24 in 4.0 mi Calm Calm - 0.01 in Rain Light Rain
6:35 AM 64.4 °F 64.4 °F 100% 30.24 in 5.0 mi Calm Calm - 0.02 in Rain Light Rain
6:55 AM 64.4 °F 64.4 °F 100% 30.24 in 2.5 mi Calm Calm - 0.04 in Rain Light Rain
7:15 AM 64.4 °F 64.4 °F 100% 30.23 in 1.8 mi Calm Calm - N/A Rain Rain
7:35 AM 64.4 °F 64.4 °F 100% 30.23 in 3.0 mi NE 4.6 mph - 0.01 in Rain Light Rain
7:55 AM 64.4 °F 64.4 °F 100% 30.22 in 3.0 mi ENE 3.5 mph - 0.01 in   Overcast
8:15 AM 64.4 °F 64.4 °F 100% 30.23 in 1.2 mi Calm Calm - N/A Rain Light Rain
8:35 AM 64.4 °F 64.4 °F 100% 30.22 in 3.0 mi ESE 3.5 mph - N/A   Overcast
8:55 AM 64.4 °F 64.4 °F 100% 30.22 in 7.0 mi Calm Calm - N/A   Light Drizzle
9:15 AM 64.4 °F 64.4 °F 100% 30.23 in 10.0 mi Calm Calm - N/A   Overcast
9:35 AM 66.2 °F 66.2 °F 100% 30.24 in 10.0 mi Calm Calm - 0.01 in Rain Light Rain
9:55 AM 66.2 °F 66.2 °F 100% 30.23 in 10.0 mi Calm Calm - 0.01 in Rain Rain
10:15 AM 66.2 °F 64.4 °F 94% 30.23 in 10.0 mi Calm Calm - N/A   Drizzle
10:35 AM 68.0 °F 66.2 °F 94% 30.24 in 10.0 mi Calm Calm - 0.01 in Rain Light Rain
10:55 AM 68.0 °F 66.2 °F 94% 30.25 in 10.0 mi Calm Calm - 0.02 in Rain Light Rain
11:15 AM 68.0 °F 66.2 °F 94% 30.25 in 10.0 mi Calm Calm - N/A Rain Light Rain
11:35 AM 68.0 °F 66.2 °F 94% 30.26 in 7.0 mi South 3.5 mph - 0.03 in Rain Light Rain
11:55 AM 68.0 °F 68.0 °F 100% 30.26 in 7.0 mi SSW 5.8 mph - 0.04 in Rain Light Rain
12:15 PM 68.0 °F 68.0 °F 100% 30.26 in 10.0 mi SSW 3.5 mph - N/A   Mostly Cloudy
12:35 PM 69.8 °F 66.2 °F 88% 30.25 in 10.0 mi Calm Calm - N/A   Scattered Clouds
12:55 PM 69.8 °F 66.2 °F 88% 30.24 in 10.0 mi Calm Calm - N/A   Mostly Cloudy
1:15 PM 69.8 °F 68.0 °F 94% 30.25 in 10.0 mi SW 3.5 mph - N/A   Mostly Cloudy
1:35 PM 69.8 °F 66.2 °F 88% 30.25 in 10.0 mi Calm Calm - N/A   Mostly Cloudy
1:55 PM 69.8 °F 66.2 °F 88% 30.24 in 10.0 mi Calm Calm - N/A   Overcast
2:15 PM 71.6 °F 68.0 °F 88% 30.24 in 10.0 mi South 3.5 mph - N/A   Overcast
2:35 PM 71.6 °F 66.2 °F 83% 30.23 in 10.0 mi SSW 5.8 mph - N/A   Overcast
2:55 PM 71.6 °F 66.2 °F 83% 30.23 in 10.0 mi Calm Calm - N/A   Overcast
3:15 PM 71.6 °F 66.2 °F 83% 30.22 in 10.0 mi South 4.6 mph - N/A   Overcast
3:35 PM 71.6 °F 66.2 °F 83% 30.21 in 10.0 mi SSE 5.8 mph - N/A   Overcast
3:55 PM 73.4 °F 66.2 °F 78% 30.20 in 10.0 mi SW 5.8 mph - N/A   Overcast
4:15 PM 73.4 °F 64.4 °F 73% 30.20 in 10.0 mi Calm Calm - N/A   Overcast
4:35 PM 75.2 °F 66.2 °F 73% 30.19 in 10.0 mi West 5.8 mph - N/A   Scattered Clouds
4:55 PM 73.4 °F 64.4 °F 73% 30.19 in 10.0 mi South 3.5 mph - N/A   Clear
5:15 PM 73.4 °F 64.4 °F 73% 30.18 in 10.0 mi Calm Calm - N/A   Clear
5:35 PM 73.4 °F 66.2 °F 78% 30.18 in 10.0 mi SW 3.5 mph - N/A   Scattered Clouds
5:55 PM 73.4 °F 64.4 °F 73% 30.18 in 10.0 mi SW 3.5 mph - N/A   Scattered Clouds
6:15 PM 73.4 °F 64.4 °F 73% 30.18 in 10.0 mi South 3.5 mph - N/A   Clear
6:35 PM 73.4 °F 66.2 °F 78% 30.18 in 10.0 mi Calm Calm - N/A   Clear
6:55 PM 73.4 °F 68.0 °F 83% 30.18 in 10.0 mi Calm Calm - N/A   Clear
7:15 PM 71.6 °F 68.0 °F 88% 30.18 in 10.0 mi Calm Calm - N/A   Clear
7:35 PM 71.6 °F 68.0 °F 88% 30.19 in 10.0 mi Calm Calm - N/A   Clear
7:55 PM 69.8 °F 66.2 °F 88% 30.19 in 10.0 mi Calm Calm - N/A   Clear
8:15 PM 68.0 °F 66.2 °F 94% 30.19 in 10.0 mi Calm Calm - N/A   Clear
8:35 PM 68.0 °F 66.2 °F 94% 30.19 in 10.0 mi Calm Calm - N/A   Scattered Clouds
8:55 PM 68.0 °F 66.2 °F 94% 30.20 in 10.0 mi Calm Calm - N/A   Mostly Cloudy
9:15 PM 68.0 °F 64.4 °F 88% 30.20 in 10.0 mi Calm Calm - N/A   Mostly Cloudy
9:35 PM 66.2 °F 64.4 °F 94% 30.22 in 10.0 mi Calm Calm - N/A   Scattered Clouds
9:55 PM 64.4 °F 64.4 °F 100% 30.22 in 10.0 mi Calm Calm - N/A   Clear
10:15 PM 64.4 °F 64.4 °F 100% 30.22 in 10.0 mi Calm Calm - N/A   Clear
10:35 PM 64.4 °F 64.4 °F 100% 30.22 in 10.0 mi Calm Calm - N/A   Clear
10:55 PM 64.4 °F 64.4 °F 100% 30.22 in 10.0 mi Calm Calm - N/A   Clear
11:15 PM 64.4 °F 64.4 °F 100% 30.22 in 10.0 mi Calm Calm - N/A   Scattered Clouds
11:35 PM 64.4 °F 64.4 °F 100% 30.22 in 10.0 mi Calm Calm - N/A   Scattered Clouds
11:55 PM 64.4 °F 64.4 °F 100% 30.23 in 10.0 mi Calm Calm - N/A   Mostly Cloudy